Погода в Которске

Россия / Псковская область     58°24′29″N   29°31′12″E
темп.,
°C
ветер,
м/с
пор.,
м/с
влажн.,
%
обл.,
%
осадки,
мм/ч
давл.,
гПа
погр.,
м
29 июня, ср
ср2900:00+19св2696100 3.9 1021148
03:00+17в3895100 4.1 1021185
06:00+16в279558 0.0 1021203
09:00+21вюв357510 0.0 1020536
12:00+26вюв34551 0.0 10201153
15:00+27вюв33479 0.0 10191606
18:00+27в334720 0.0 10191621
21:00+21в25700 0.0 1019105
30 июня, чт
чт3000:00+17вюв26750 0.0 102095
03:00+15вюв22630 0.0 102032
06:00+15в24650 0.0 102084
09:00+22вюв24455 0.0 1021406
12:00+26в233349 0.0 10201438
15:00+27вюв23295 0.0 10202016
18:00+27вюв22322 0.0 10201515
21:00+20юв226298 0.0 102013
1 июля, пт
пт100:00+16всв11674 0.0 102111
03:00+14в22690 0.0 102214
06:00+16вюв11695 0.0 102237
09:00+23вюв12465 0.0 1023324
12:00+27вюв23328 0.0 10221370
15:00+29юв2229100 0.0 10211820
18:00+28ю223472 0.0 10211822
21:00+22ююв12650 0.0 102111
2 июля, сб
сб200:00+18ю1168100 0.0 102111
03:00+17ююз1165100 0.0 102111
06:00+18ю117198 0.0 102125
09:00+24ю1152100 0.0 1020292
12:00+28ююз1241100 0.0 10201080
15:00+29з1241100 0.0 10191738
18:00+28с0149100 0.0 1018773
21:00+24зюз126796 0.0 101813
3 июля, вс
вс300:00+23юз1167100 0.0 101814
03:00+21зюз117297 0.0 101811
06:00+20зюз127752 0.0 101859
09:00+25з126039 0.0 1018457
12:00+29з334362 0.0 10171531
15:00+30з333756 0.0 10172496
18:00+26зсз3556100 0.0 1017613
21:00+19ссз389295 2.4 1018234